| time (UTC) | temp F | wind direction | speed MPH | gust MPH | rain 1hr in | rain 24hr in | rain mn in | humidity % | barometer mb |
| 20260505004522 | 78 | 205 | 4.0 | 8.0 | 0.00 | 0.00 | 0.00 | 62 | 1005.7 |
| 20260505004019 | 79 | 193 | 4.0 | 11.0 | 0.00 | 0.00 | 0.00 | 61 | 1005.7 |
| 20260505003536 | 79 | 203 | 4.0 | 11.0 | 0.00 | 0.00 | 0.00 | 61 | 1005.6 |
| 20260505003053 | 79 | 211 | 6.0 | 13.0 | 0.00 | 0.00 | 0.00 | 61 | 1005.6 |
| 20260505002529 | 80 | 202 | 4.0 | 9.0 | 0.00 | 0.00 | 0.00 | 60 | 1005.7 |
| 20260505002026 | 80 | 212 | 3.0 | 7.0 | 0.00 | 0.00 | 0.00 | 60 | 1005.8 |
| 20260505001522 | 80 | 208 | 4.0 | 9.0 | 0.00 | 0.00 | 0.00 | 59 | 1005.8 |
| 20260505001018 | 81 | 191 | 4.0 | 10.0 | 0.00 | 0.00 | 0.00 | 59 | 1005.6 |
| 20260505000516 | 81 | 200 | 4.0 | 10.0 | 0.00 | 0.00 | 0.00 | 58 | 1005.7 |
| 20260505000033 | 81 | 193 | 5.0 | 11.0 | 0.00 | 0.00 | 0.00 | 58 | 1005.9 |
| 20260504235529 | 81 | 202 | 4.0 | 8.0 | 0.00 | 0.00 | 0.00 | 57 | 1006.0 |
| 20260504235026 | 81 | 208 | 4.0 | 10.0 | 0.00 | 0.00 | 0.00 | 57 | 1005.9 |
| 20260504234521 | 81 | 201 | 4.0 | 13.0 | 0.00 | 0.00 | 0.00 | 57 | 1006.0 |
| 20260504234018 | 81 | 197 | 5.0 | 12.0 | 0.00 | 0.00 | 0.00 | 57 | 1006.0 |
| 20260504233555 | 81 | 200 | 5.0 | 11.0 | 0.00 | 0.00 | 0.00 | 56 | 1006.0 |
| 20260504233031 | 81 | 212 | 4.0 | 10.0 | 0.00 | 0.00 | 0.00 | 55 | 1006.1 |
| 20260504232549 | 82 | 190 | 5.0 | 11.0 | 0.00 | 0.00 | 0.00 | 55 | 1006.0 |
| 20260504232025 | 82 | 200 | 5.0 | 12.0 | 0.00 | 0.00 | 0.00 | 54 | 1006.1 |
| 20260504231522 | 82 | 216 | 5.0 | 13.0 | 0.00 | 0.00 | 0.00 | 54 | 1006.1 |
| 20260504231019 | 82 | 209 | 4.0 | 11.0 | 0.00 | 0.00 | 0.00 | 54 | 1006.2 |
| 20260504230516 | 82 | 197 | 4.0 | 13.0 | 0.00 | 0.00 | 0.00 | 54 | 1006.1 |
| 20260504230053 | 83 | 189 | 6.0 | 16.0 | 0.00 | 0.00 | 0.00 | 54 | 1006.2 |
| 20260504225530 | 83 | 189 | 4.0 | 14.0 | 0.00 | 0.00 | 0.00 | 54 | 1006.4 |
| 20260504225026 | 83 | 207 | 4.0 | 12.0 | 0.00 | 0.00 | 0.00 | 53 | 1006.6 |
| 20260504224523 | 84 | 206 | 4.0 | 12.0 | 0.00 | 0.00 | 0.00 | 53 | 1006.6 |
| 20260504224020 | 84 | 201 | 5.0 | 14.0 | 0.00 | 0.00 | 0.00 | 53 | 1006.5 |
| 20260504223516 | 84 | 205 | 5.0 | 13.0 | 0.00 | 0.00 | 0.00 | 52 | 1006.5 |
| 20260504223033 | 85 | 211 | 5.0 | 11.0 | 0.00 | 0.00 | 0.00 | 51 | 1006.4 |
| 20260504222530 | 85 | 212 | 6.0 | 14.0 | 0.00 | 0.00 | 0.00 | 51 | 1006.5 |
| 20260504222027 | 85 | 199 | 5.0 | 12.0 | 0.00 | 0.00 | 0.00 | 51 | 1006.4 |
| 20260504221603 | 85 | 209 | 5.0 | 14.0 | 0.00 | 0.00 | 0.00 | 51 | 1006.4 |
| 20260504221020 | 84 | 202 | 5.0 | 14.0 | 0.00 | 0.00 | 0.00 | 51 | 1006.4 |
| 20260504220517 | 85 | 202 | 6.0 | 12.0 | 0.00 | 0.00 | 0.00 | 50 | 1006.7 |
| 20260504220034 | 84 | 196 | 5.0 | 12.0 | 0.00 | 0.00 | 0.00 | 51 | 1006.6 |
| 20260504215531 | 85 | 198 | 5.0 | 13.0 | 0.00 | 0.00 | 0.00 | 51 | 1006.6 |
| 20260504215048 | 85 | 212 | 4.0 | 10.0 | 0.00 | 0.00 | 0.00 | 50 | 1006.7 |
| 20260504214524 | 85 | 217 | 5.0 | 13.0 | 0.00 | 0.00 | 0.00 | 50 | 1006.7 |
| 20260504214021 | 85 | 207 | 5.0 | 14.0 | 0.00 | 0.00 | 0.00 | 50 | 1006.8 |
| 20260504213538 | 85 | 217 | 5.0 | 11.0 | 0.00 | 0.00 | 0.00 | 50 | 1006.8 |
| 20260504213055 | 85 | 212 | 5.0 | 16.0 | 0.00 | 0.00 | 0.00 | 49 | 1007.0 |
| 20260504212531 | 86 | 216 | 6.0 | 18.0 | 0.00 | 0.00 | 0.00 | 49 | 1007.3 |
| 20260504212028 | 85 | 212 | 6.0 | 13.0 | 0.00 | 0.00 | 0.00 | 49 | 1007.3 |
| 20260504211525 | 86 | 197 | 6.0 | 17.0 | 0.00 | 0.00 | 0.00 | 48 | 1007.2 |
| 20260504211042 | 86 | 203 | 5.0 | 16.0 | 0.00 | 0.00 | 0.00 | 48 | 1007.1 |
| 20260504210518 | 86 | 210 | 4.0 | 11.0 | 0.00 | 0.00 | 0.00 | 49 | 1007.3 |
| 20260504210015 | 85 | 213 | 5.0 | 10.0 | 0.00 | 0.00 | 0.00 | 49 | 1007.4 |
| 20260504205533 | 85 | 193 | 5.0 | 13.0 | 0.00 | 0.00 | 0.00 | 50 | 1007.5 |
| 20260504205050 | 85 | 206 | 7.0 | 14.0 | 0.00 | 0.00 | 0.00 | 50 | 1007.6 |
| 20260504204526 | 85 | 202 | 6.0 | 18.0 | 0.00 | 0.00 | 0.00 | 50 | 1007.7 |
| 20260504204022 | 85 | 216 | 6.0 | 15.0 | 0.00 | 0.00 | 0.00 | 50 | 1007.8 |
| 20260504203519 | 84 | 218 | 7.0 | 16.0 | 0.00 | 0.00 | 0.00 | 50 | 1007.8 |
| 20260504203016 | 85 | 220 | 6.0 | 14.0 | 0.00 | 0.00 | 0.00 | 50 | 1008.0 |
| 20260504202533 | 85 | 213 | 6.0 | 14.0 | 0.00 | 0.00 | 0.00 | 50 | 1008.1 |
| 20260504202031 | 85 | 208 | 4.0 | 8.0 | 0.00 | 0.00 | 0.00 | 50 | 1008.1 |
| 20260504201527 | 84 | 211 | 5.0 | 11.0 | 0.00 | 0.00 | 0.00 | 50 | 1008.4 |
| 20260504201023 | 83 | 215 | 5.0 | 12.0 | 0.00 | 0.00 | 0.00 | 51 | 1008.5 |
| 20260504200520 | 83 | 187 | 4.0 | 20.0 | 0.00 | 0.00 | 0.00 | 51 | 1008.6 |
| 20260504200017 | 83 | 208 | 6.0 | 14.0 | 0.00 | 0.00 | 0.00 | 51 | 1008.8 |
| 20260504195555 | 84 | 213 | 7.0 | 16.0 | 0.00 | 0.00 | 0.00 | 50 | 1009.0 |
| 20260504195031 | 84 | 203 | 6.0 | 14.0 | 0.00 | 0.00 | 0.00 | 50 | 1009.1 |
| 20260504194527 | 84 | 215 | 6.0 | 13.0 | 0.00 | 0.00 | 0.00 | 50 | 1009.1 |
| 20260504194024 | 84 | 204 | 5.0 | 13.0 | 0.00 | 0.00 | 0.00 | 49 | 1009.3 |
| 20260504193521 | 84 | 216 | 5.0 | 10.0 | 0.00 | 0.00 | 0.00 | 50 | 1009.2 |
| 20260504193017 | 83 | 204 | 5.0 | 13.0 | 0.00 | 0.00 | 0.00 | 50 | 1009.3 |
| 20260504192535 | 83 | 208 | 5.0 | 11.0 | 0.00 | 0.00 | 0.00 | 50 | 1009.2 |
| 20260504192031 | 83 | 222 | 6.0 | 17.0 | 0.00 | 0.00 | 0.00 | 50 | 1009.2 |
| 20260504191528 | 83 | 179 | 5.0 | 11.0 | 0.00 | 0.00 | 0.00 | 50 | 1009.3 |
| 20260504191025 | 83 | 213 | 5.0 | 15.0 | 0.00 | 0.00 | 0.00 | 50 | 1009.6 |
| 20260504190542 | 83 | 198 | 4.0 | 11.0 | 0.00 | 0.00 | 0.00 | 51 | 1009.5 |
| 20260504190019 | 82 | 218 | 4.0 | 17.0 | 0.00 | 0.00 | 0.00 | 51 | 1009.7 |
| 20260504185555 | 82 | 215 | 6.0 | 14.0 | 0.00 | 0.00 | 0.00 | 51 | 1009.8 |
| 20260504185032 | 82 | 211 | 6.0 | 17.0 | 0.00 | 0.00 | 0.00 | 51 | 1009.9 |
| 20260504184529 | 81 | 218 | 6.0 | 15.0 | 0.00 | 0.00 | 0.00 | 52 | 1010.0 |
| 20260504184046 | 81 | 204 | 7.0 | 19.0 | 0.00 | 0.00 | 0.00 | 51 | 1010.0 |
| 20260504183523 | 81 | 222 | 5.0 | 15.0 | 0.00 | 0.00 | 0.00 | 51 | 1010.1 |
| 20260504183019 | 81 | 214 | 6.0 | 22.0 | 0.00 | 0.00 | 0.00 | 52 | 1010.2 |
| 20260504182516 | 81 | 209 | 7.0 | 14.0 | 0.00 | 0.00 | 0.00 | 51 | 1010.4 |
| 20260504182033 | 81 | 212 | 5.0 | 15.0 | 0.00 | 0.00 | 0.00 | 52 | 1010.3 |
| 20260504181610 | 81 | 216 | 7.0 | 20.0 | 0.00 | 0.00 | 0.00 | 52 | 1010.3 |
| 20260504181026 | 80 | 192 | 4.0 | 12.0 | 0.00 | 0.00 | 0.00 | 52 | 1010.6 |
| 20260504180523 | 80 | 210 | 7.0 | 15.0 | 0.00 | 0.00 | 0.00 | 52 | 1010.4 |
| 20260504180019 | 81 | 211 | 6.0 | 11.0 | 0.00 | 0.00 | 0.00 | 52 | 1010.5 |
| 20260504175536 | 80 | 217 | 4.0 | 11.0 | 0.00 | 0.00 | 0.00 | 53 | 1010.6 |
| 20260504175053 | 80 | 219 | 6.0 | 17.0 | 0.00 | 0.00 | 0.00 | 53 | 1010.6 |
| 20260504174530 | 80 | 209 | 6.0 | 19.0 | 0.00 | 0.00 | 0.00 | 53 | 1011.0 |
| 20260504174027 | 80 | 215 | 5.0 | 10.0 | 0.00 | 0.00 | 0.00 | 53 | 1011.0 |
| 20260504173523 | 79 | 207 | 5.0 | 14.0 | 0.00 | 0.00 | 0.00 | 54 | 1011.0 |
| 20260504173019 | 79 | 212 | 6.0 | 15.0 | 0.00 | 0.00 | 0.00 | 53 | 1011.2 |
| 20260504172537 | 79 | 192 | 5.0 | 13.0 | 0.00 | 0.00 | 0.00 | 53 | 1011.2 |
| 20260504172034 | 79 | 205 | 5.0 | 18.0 | 0.00 | 0.00 | 0.00 | 54 | 1011.2 |
| 20260504171531 | 78 | 215 | 6.0 | 11.0 | 0.00 | 0.00 | 0.00 | 54 | 1011.3 |
| 20260504171027 | 78 | 209 | 6.0 | 17.0 | 0.00 | 0.00 | 0.00 | 54 | 1011.5 |
| 20260504170524 | 77 | 215 | 6.0 | 14.0 | 0.00 | 0.00 | 0.00 | 55 | 1011.5 |
| 20260504151031 | 72 | 210 | 6.0 | 14.0 | 0.00 | 0.00 | 0.00 | 58 | 1012.4 |
| 20260504150527 | 72 | 213 | 6.0 | 17.0 | 0.00 | 0.00 | 0.00 | 59 | 1012.5 |
| 20260504141031 | 69 | 205 | 5.0 | 16.0 | 0.00 | 0.00 | 0.00 | 65 | 1012.6 |
| 20260504140528 | 69 | 210 | 6.0 | 17.0 | 0.00 | 0.00 | 0.00 | 66 | 1012.6 |
| 20260504130550 | 65 | 188 | 4.0 | 14.0 | 0.00 | 0.00 | 0.00 | 70 | 1012.8 |
| 20260504110516 | 63 | 197 | 3.0 | 9.0 | 0.00 | 0.00 | 0.00 | 69 | 1012.6 |
| 20260504100517 | 63 | 206 | 4.0 | 11.0 | 0.00 | 0.00 | 0.00 | 68 | 1012.7 |
| 20260504081530 | 64 | 191 | 3.0 | 7.0 | 0.00 | 0.00 | 0.00 | 61 | 1013.5 |
| 20260504081027 | 64 | 196 | 3.0 | 6.0 | 0.00 | 0.00 | 0.00 | 60 | 1013.5 |
| 20260504080544 | 64 | 188 | 3.0 | 8.0 | 0.00 | 0.00 | 0.00 | 60 | 1013.7 |
| 20260504050529 | 68 | 198 | 2.0 | 5.0 | 0.00 | 0.00 | 0.00 | 54 | 1015.7 |
| 20260504045523 | 68 | 199 | 2.0 | 5.0 | 0.00 | 0.00 | 0.00 | 53 | 1015.7 |
| 20260504045039 | 68 | 162 | 1.0 | 4.0 | 0.00 | 0.00 | 0.00 | 53 | 1015.8 |
| 20260504044516 | 68 | 179 | 2.0 | 6.0 | 0.00 | 0.00 | 0.00 | 53 | 1015.7 |
| 20260504044033 | 68 | 183 | 2.0 | 5.0 | 0.00 | 0.00 | 0.00 | 52 | 1015.7 |
| 20260504043530 | 69 | 180 | 2.0 | 5.0 | 0.00 | 0.00 | 0.00 | 52 | 1015.7 |
| 20260504043026 | 69 | 183 | 2.0 | 5.0 | 0.00 | 0.00 | 0.00 | 51 | 1015.8 |
| 20260504042524 | 69 | 201 | 3.0 | 6.0 | 0.00 | 0.00 | 0.00 | 51 | 1016.0 |
| 20260504042021 | 69 | 195 | 3.0 | 6.0 | 0.00 | 0.00 | 0.00 | 50 | 1016.0 |
| 20260504041537 | 69 | 197 | 3.0 | 6.0 | 0.00 | 0.00 | 0.00 | 50 | 1015.9 |
| 20260504041034 | 70 | 199 | 3.0 | 6.0 | 0.00 | 0.00 | 0.00 | 50 | 1015.9 |
| 20260504040551 | 70 | 191 | 3.0 | 6.0 | 0.00 | 0.00 | 0.00 | 49 | 1015.9 |
| 20260504040029 | 70 | 207 | 3.0 | 12.0 | 0.00 | 0.00 | 0.00 | 49 | 1015.8 |
| 20260504035525 | 70 | 197 | 2.0 | 6.0 | 0.00 | 0.00 | 0.00 | 49 | 1015.9 |
| 20260504035022 | 70 | 190 | 2.0 | 5.0 | 0.00 | 0.00 | 0.00 | 49 | 1015.8 |
| 20260504034539 | 70 | 199 | 3.0 | 5.0 | 0.00 | 0.00 | 0.00 | 49 | 1015.8 |
| 20260504034015 | 70 | 208 | 3.0 | 6.0 | 0.00 | 0.00 | 0.00 | 48 | 1015.8 |
| 20260504033531 | 70 | 186 | 3.0 | 7.0 | 0.00 | 0.00 | 0.00 | 48 | 1015.8 |
| 20260504033027 | 71 | 182 | 3.0 | 6.0 | 0.00 | 0.00 | 0.00 | 48 | 1015.8 |
| 20260504032544 | 71 | 209 | 2.0 | 7.0 | 0.00 | 0.00 | 0.00 | 48 | 1015.8 |
| 20260504032021 | 71 | 192 | 3.0 | 6.0 | 0.00 | 0.00 | 0.00 | 47 | 1015.7 |
| 20260504031518 | 71 | 234 | 2.0 | 8.0 | 0.00 | 0.00 | 0.00 | 47 | 1015.8 |
| 20260504031055 | 71 | 212 | 2.0 | 9.0 | 0.00 | 0.00 | 0.00 | 47 | 1015.7 |
| 20260504030531 | 71 | 181 | 2.0 | 5.0 | 0.00 | 0.00 | 0.00 | 46 | 1015.7 |
| 20260504030028 | 71 | 205 | 2.0 | 5.0 | 0.00 | 0.00 | 0.00 | 46 | 1015.7 |
| 20260504025545 | 71 | 201 | 2.0 | 4.0 | 0.00 | 0.00 | 0.00 | 46 | 1015.6 |
| 20260504025021 | 72 | 188 | 2.0 | 6.0 | 0.00 | 0.00 | 0.00 | 45 | 1015.6 |
| 20260504024539 | 72 | 194 | 3.0 | 6.0 | 0.00 | 0.00 | 0.00 | 45 | 1015.6 |
| 20260504024056 | 72 | 211 | 3.0 | 6.0 | 0.00 | 0.00 | 0.00 | 44 | 1015.6 |
| 20260504023533 | 72 | 209 | 3.0 | 6.0 | 0.00 | 0.00 | 0.00 | 44 | 1015.5 |
| 20260504023029 | 72 | 201 | 2.0 | 7.0 | 0.00 | 0.00 | 0.00 | 44 | 1015.5 |
| 20260504022527 | 72 | 187 | 3.0 | 6.0 | 0.00 | 0.00 | 0.00 | 43 | 1015.5 |
| 20260504022023 | 73 | 195 | 3.0 | 7.0 | 0.00 | 0.00 | 0.00 | 43 | 1015.4 |
| 20260504021520 | 73 | 175 | 2.0 | 5.0 | 0.00 | 0.00 | 0.00 | 42 | 1015.4 |
| 20260504021017 | 73 | 184 | 3.0 | 6.0 | 0.00 | 0.00 | 0.00 | 42 | 1015.5 |
| 20260504020533 | 73 | 178 | 2.0 | 5.0 | 0.00 | 0.00 | 0.00 | 42 | 1015.5 |
| 20260504020030 | 73 | 170 | 2.0 | 6.0 | 0.00 | 0.00 | 0.00 | 42 | 1015.5 |
| 20260504015548 | 74 | 183 | 3.0 | 6.0 | 0.00 | 0.00 | 0.00 | 41 | 1015.5 |
| 20260504015024 | 74 | 197 | 2.0 | 5.0 | 0.00 | 0.00 | 0.00 | 41 | 1015.5 |
| 20260504014522 | 74 | 188 | 3.0 | 9.0 | 0.00 | 0.00 | 0.00 | 40 | 1015.6 |
| 20260504014018 | 75 | 191 | 3.0 | 7.0 | 0.00 | 0.00 | 0.00 | 39 | 1015.5 |
| 20260504013535 | 75 | 190 | 2.0 | 5.0 | 0.00 | 0.00 | 0.00 | 39 | 1015.3 |
| 20260504013032 | 75 | 195 | 2.0 | 5.0 | 0.00 | 0.00 | 0.00 | 39 | 1015.1 |
| 20260504012549 | 75 | 179 | 3.0 | 8.0 | 0.00 | 0.00 | 0.00 | 39 | 1015.3 |
| 20260504012025 | 75 | 199 | 2.0 | 5.0 | 0.00 | 0.00 | 0.00 | 38 | 1015.2 |
| 20260504011522 | 76 | 196 | 2.0 | 6.0 | 0.00 | 0.00 | 0.00 | 37 | 1015.2 |
| 20260504011039 | 76 | 167 | 3.0 | 7.0 | 0.00 | 0.00 | 0.00 | 37 | 1015.1 |
| 20260504010516 | 76 | 175 | 3.0 | 6.0 | 0.00 | 0.00 | 0.00 | 37 | 1015.2 |
| 20260504010033 | 77 | 187 | 3.0 | 8.0 | 0.00 | 0.00 | 0.00 | 37 | 1015.0 |
| 20260504005530 | 77 | 204 | 2.0 | 7.0 | 0.00 | 0.00 | 0.00 | 36 | 1015.0 |
| 20260504005027 | 77 | 186 | 3.0 | 7.0 | 0.00 | 0.00 | 0.00 | 36 | 1015.0 |